Appleton, WI

8:51 AM CDT on October 23, 2019 (GMT -0500)
Outagamie County Regional

Weather History for KATW - August, 2019

Change the Weather History Date:

Saturday, August 31, 2019

  Actual Average Record
Temperature  
Mean Temperature 59 °F -  
Max Temperature 68 °F 76 °F 92 °F (1960)
Min Temperature 50 °F 57 °F 43 °F (1949)
Degree Days  
Heating Degree Days 6    
Growing Degree Days 9 (Base 50)    
Moisture  
Dew Point 43 °F    
Average Humidity 61    
Maximum Humidity 94    
Minimum Humidity 40    
Precipitation  
Precipitation 0.00 in - - ()
Sea Level Pressure  
Sea Level Pressure 30.27 in    
Wind  
Wind Speed 2 mph ()    
Max Wind Speed 9 mph    
Max Gust Speed -    
Visibility 10.0 miles    
Events      
Averages and records for this station are not official NWS values.
T = Trace of Precipitation, MM = Missing Value Source: Averaged Metar Reports

Daily Weather History Graph

Daily Weather History Graph

Search for Another Location

Airport or City:

Astronomy

Aug. 31, 2019 Rise Set
Actual Time 6:15 AM CDT 7:32 PM CDT
Civil Twilight 5:45 AM CDT 8:02 PM CDT
Nautical Twilight 5:09 AM CDT 8:38 PM CDT
Astronomical Twilight 4:31 AM CDT 9:16 PM CDT
Moon 7:32 AM CDT (8/31) 8:42 PM CDT (8/31)
Length of Visible Light 14h 16m
Length of Day
13h 16m
New Moon, 3% of the Moon is Illuminated
Aug 31
New Moon
Sep 5
First Quarter
Sep 13
Full
Sep 21
Last Quarter
Sep 28
New

Hourly Weather History & Observations

Time (CDT) Temp. Dew Point Humidity Pressure Visibility Wind Dir Wind Speed Gust Speed Precip Events Conditions
12:15 AM 51.8 °F 41.0 °F 67% 30.23 in 10.0 mi WNW 5.8 mph - N/A   Clear
12:35 AM 55.4 °F 41.0 °F 58% 30.24 in 10.0 mi Calm Calm - N/A   Clear
12:55 AM 53.6 °F 41.0 °F 62% 30.25 in 10.0 mi Calm Calm - N/A   Clear
1:15 AM 53.6 °F 41.0 °F 62% 30.25 in 10.0 mi Calm Calm - N/A   Clear
1:35 AM 51.8 °F 41.0 °F 67% 30.26 in 10.0 mi Calm Calm - N/A   Clear
1:55 AM 50.0 °F 41.0 °F 71% 30.26 in 10.0 mi Calm Calm - N/A   Clear
2:15 AM 50.0 °F 41.0 °F 71% 30.25 in 10.0 mi North 4.6 mph - N/A   Clear
2:35 AM 51.8 °F 41.0 °F 67% 30.25 in 10.0 mi Calm Calm - N/A   Clear
2:55 AM 51.8 °F 41.0 °F 67% 30.25 in 10.0 mi Calm Calm - N/A   Clear
3:15 AM 50.0 °F 41.0 °F 71% 30.25 in 10.0 mi Calm Calm - N/A   Clear
3:35 AM 51.8 °F 42.8 °F 71% 30.25 in 10.0 mi North 8.1 mph - N/A   Clear
3:55 AM 50.0 °F 41.0 °F 71% 30.26 in 10.0 mi Calm Calm - N/A   Clear
4:15 AM 50.0 °F 41.0 °F 71% 30.27 in 10.0 mi Calm Calm - N/A   Clear
4:35 AM 50.0 °F 41.0 °F 71% 30.27 in 10.0 mi Calm Calm - N/A   Clear
4:55 AM 50.0 °F 41.0 °F 71% 30.27 in 10.0 mi Calm Calm - N/A   Clear
5:15 AM 51.8 °F 42.8 °F 71% 30.28 in 10.0 mi Calm Calm - N/A   Clear
5:20 AM 51.8 °F 42.8 °F 71% 30.28 in 10.0 mi Calm Calm - N/A   Scattered Clouds
5:45 AM 51.8 °F 42.8 °F 71% 30.28 in 10.0 mi Calm Calm - N/A   Scattered Clouds
6:45 AM 51.8 °F 44.6 °F 76% 30.30 in 10.0 mi Calm Calm - N/A   Scattered Clouds
7:45 AM 53.6 °F 51.8 °F 94% 30.30 in 10.0 mi Calm Calm - N/A   Mostly Cloudy
8:45 AM 59.0 °F 48.2 °F 67% 30.31 in 10.0 mi Calm Calm - N/A   Mostly Cloudy
9:45 AM 64.4 °F 46.4 °F 52% 30.31 in 10.0 mi SSE 8.1 mph - N/A   Mostly Cloudy
10:45 AM 66.2 °F 44.6 °F 46% 30.31 in 10.0 mi South 8.1 mph - N/A   Mostly Cloudy
11:45 AM 64.4 °F 46.4 °F 52% 30.32 in 10.0 mi South 6.9 mph - N/A   Mostly Cloudy
12:45 PM 66.2 °F 46.4 °F 49% 30.31 in 10.0 mi SSE 5.8 mph - N/A   Mostly Cloudy
1:45 PM 68.0 °F 42.8 °F 40% 30.31 in 10.0 mi SE 9.2 mph - N/A   Mostly Cloudy
2:45 PM 68.0 °F 44.6 °F 43% 30.30 in 10.0 mi SSE 9.2 mph - N/A   Mostly Cloudy
3:45 PM 66.2 °F 42.8 °F 43% 30.29 in 10.0 mi SE 8.1 mph - N/A   Mostly Cloudy
4:45 PM 66.2 °F 41.0 °F 40% 30.27 in 10.0 mi SE 9.2 mph - N/A   Mostly Cloudy
5:45 PM 66.2 °F 41.0 °F 40% 30.27 in 10.0 mi SE 6.9 mph - N/A   Mostly Cloudy
6:45 PM 64.4 °F 42.8 °F 45% 30.25 in 10.0 mi ESE 4.6 mph - N/A   Mostly Cloudy
7:45 PM 62.6 °F 39.2 °F 42% 30.25 in 10.0 mi East 4.6 mph - N/A   Mostly Cloudy
8:45 PM 62.6 °F 42.8 °F 48% 30.25 in 10.0 mi East 4.6 mph - N/A   Mostly Cloudy
9:45 PM 60.8 °F 42.8 °F 52% 30.24 in 10.0 mi East 4.6 mph - N/A   Mostly Cloudy
10:45 PM 55.4 °F 42.8 °F 63% 30.25 in 10.0 mi Calm Calm - N/A   Mostly Cloudy
10:55 PM 53.6 °F 42.8 °F 67% 30.25 in 10.0 mi Calm Calm - N/A   Clear
11:15 PM 53.6 °F 42.8 °F 67% 30.25 in 10.0 mi Calm Calm - N/A   Clear
11:35 PM 53.6 °F 42.8 °F 67% 30.25 in 10.0 mi Calm Calm - N/A   Clear
11:55 PM 53.6 °F 42.8 °F 67% 30.24 in 10.0 mi Calm Calm - N/A   Clear